Terug naar catalogus

GEOSKAN-4

ActiefAmateurradioSSO
NORAD 64892·PAYLOAD·🇷🇺 Russia
Deze satellietnaam is nog niet bevestigd door officiële bronnen.

Gelanceerd Jul 25, 2025 vanaf Vostochny Cosmodrome

Loading…

Volgende Passages (komende 24 uur)

TLE

VersSource: Space-Track

Epoch: Sep 14, 2026, 14:11 UTC

1 64892U 25155S   26257.59123789  .00012912  00000-0  37413-3 0  9999
2 64892  97.4656 228.0231 0004517 200.1976 159.9090 15.35685235 94535

Volg GEOSKAN-4 in realtime met AllMySat

Download on the App Store